CW9803 Weather Reports


time (UTC)temp
F
wind
direction
speed
knots
gust
knots
rain 1hr
in
rain 24hr
in
rain mn
in
humidity
%
barometer
mb
20260503023551 69 299 2.6 3.5 0.00 0.00 0.00 38 1010.8
20260503023048 71 345 0.9 1.7 0.00 0.00 0.00 40 1010.9
20260503022544 71 336 1.7 2.6 0.00 0.00 0.00 36 1010.9
20260503022039 72 16 1.7 2.6 0.00 0.00 0.00 37 1010.8
20260503021536 73 132 0.0 0.0 0.00 0.00 0.00 36 1010.8
20260503021033 73 93 0.0 0.0 0.00 0.00 0.00 37 1010.9
20260503020530 73 38 0.9 1.7 0.00 0.00 0.00 36 1010.8
20260503020027 74 333 1.7 1.7 0.00 0.00 0.00 33 1010.8
20260503015524 74 59 1.7 1.7 0.00 0.00 0.00 32 1010.8
20260503015021 75 62 1.7 1.7 0.00 0.00 0.00 31 1010.9
20260503014517 75 41 3.5 5.2 0.00 0.00 0.00 30 1010.7
20260503014015 76 88 1.7 1.7 0.00 0.00 0.00 30 1010.7
20260503013512 76 69 3.5 3.5 0.00 0.00 0.00 31 1010.7
20260503013010 77 36 1.7 1.7 0.00 0.00 0.00 31 1010.6
20260503012507 78 191 0.0 0.9 0.00 0.00 0.00 28 1010.5
20260503012003 78 107 0.9 0.9 0.00 0.00 0.00 27 1010.5
20260503011500 78 335 2.6 2.6 0.00 0.00 0.00 23 1010.6
20260503010957 79 62 0.9 0.9 0.00 0.00 0.00 24 1010.5
20260503010453 79 107 0.9 1.7 0.00 0.00 0.00 26 1010.7
20260503005951 78 188 0.9 0.9 0.00 0.00 0.00 25 1010.6
20260503005448 77 350 1.7 1.7 0.00 0.00 0.00 22 1010.8
20260503004944 79 127 0.0 0.9 0.00 0.00 0.00 25 1010.7
20260503004441 80 143 0.0 0.0 0.00 0.00 0.00 23 1010.8
20260503003939 79 78 0.9 1.7 0.00 0.00 0.00 24 1010.7
20260503003436 79 106 0.0 0.9 0.00 0.00 0.00 23 1010.8
20260503002933 79 126 0.0 0.9 0.00 0.00 0.00 22 1010.7
20260503002430 78 41 2.6 3.5 0.00 0.00 0.00 22 1010.8
20260503001926 78 133 0.9 0.9 0.00 0.00 0.00 23 1010.5
20260503001423 78 78 0.9 1.7 0.00 0.00 0.00 23 1010.7
20260503000921 80 70 1.7 1.7 0.00 0.00 0.00 21 1011.0
20260503000417 79 182 0.9 1.7 0.00 0.00 0.00 22 1010.7
20260502235914 79 165 0.0 0.9 0.00 0.00 0.00 24 1010.5
20260502235411 79 299 3.5 5.2 0.00 0.00 0.00 22 1010.8
20260502234909 79 114 0.9 0.9 0.00 0.00 0.00 23 1010.7
20260502234405 80 142 0.0 0.0 0.00 0.00 0.00 22 1010.7
20260502233902 82 152 0.0 0.0 0.00 0.00 0.00 22 1010.9
20260502233358 80 149 0.9 1.7 0.00 0.00 0.00 21 1010.8
20260502232855 80 116 0.0 0.9 0.00 0.00 0.00 22 1010.8
20260502232351 80 152 0.0 0.0 0.00 0.00 0.00 21 1011.0
20260502231848 80 161 1.7 1.7 0.00 0.00 0.00 23 1010.8
20260502231346 80 157 0.9 1.7 0.00 0.00 0.00 23 1011.2
20260502230844 80 141 0.0 0.9 0.00 0.00 0.00 24 1011.2
20260502230342 79 117 0.9 1.7 0.00 0.00 0.00 23 1011.2
20260502225838 80 93 2.6 2.6 0.00 0.00 0.00 23 1011.1
20260502225335 80 76 0.9 0.9 0.00 0.00 0.00 23 1011.2
20260502224832 80 140 0.0 0.0 0.00 0.00 0.00 23 1011.3
20260502224328 79 138 1.7 1.7 0.00 0.00 0.00 22 1011.2
20260502223825 79 131 0.0 0.9 0.00 0.00 0.00 25 1011.4
20260502223323 79 160 0.9 1.7 0.00 0.00 0.00 27 1011.7
20260502222821 80 106 1.7 1.7 0.00 0.00 0.00 26 1011.8
20260502222318 79 153 0.0 0.9 0.00 0.00 0.00 27 1011.4
20260502221814 77 115 0.0 0.9 0.00 0.00 0.00 27 1011.4
20260502221310 77 144 0.9 1.7 0.00 0.00 0.00 28 1011.9
20260502220808 77 144 1.7 2.6 0.00 0.00 0.00 27 1011.9
20260502220303 77 145 0.0 0.0 0.00 0.00 0.00 26 1011.9
20260502215800 77 141 1.7 1.7 0.00 0.00 0.00 26 1012.0
20260502215257 78 116 0.9 1.7 0.00 0.00 0.00 25 1011.8
20260502214754 80 161 0.9 0.9 0.00 0.00 0.00 29 1012.0
20260502214250 79 129 0.9 0.9 0.00 0.00 0.00 27 1011.9
20260502213748 78 114 0.9 1.7 0.00 0.00 0.00 26 1011.9
20260502213245 78 183 1.7 1.7 0.00 0.00 0.00 25 1012.0
20260502212744 78 145 0.0 0.0 0.00 0.00 0.00 28 1012.0
20260502212242 77 141 1.7 2.6 0.00 0.00 0.00 27 1012.2
20260502211737 78 144 0.0 0.0 0.00 0.00 0.00 28 1012.4
20260502211235 76 160 0.9 0.9 0.00 0.00 0.00 26 1012.1
20260502210732 77 85 1.7 1.7 0.00 0.00 0.00 27 1012.4
20260502210229 77 139 1.7 1.7 0.00 0.00 0.00 27 1012.4
20260502205726 76 157 3.5 3.5 0.00 0.00 0.00 30 1012.4
20260502205222 75 129 0.0 0.0 0.00 0.00 0.00 29 1012.6
20260502204719 76 138 2.6 2.6 0.00 0.00 0.00 29 1012.5
20260502204217 75 170 3.5 3.5 0.00 0.00 0.00 29 1012.7
20260502203715 75 158 3.5 3.5 0.00 0.00 0.00 29 1012.6
20260502203212 75 174 3.5 3.5 0.00 0.00 0.00 30 1012.9
20260502202706 75 186 4.3 6.1 0.00 0.00 0.00 30 1012.7
20260502202205 75 145 0.9 0.9 0.00 0.00 0.00 28 1013.0
20260502201702 75 153 3.5 5.2 0.00 0.00 0.00 29 1012.7
20260502201158 75 174 2.6 2.6 0.00 0.00 0.00 28 1013.0
20260502200654 75 221 1.7 1.7 0.00 0.00 0.00 29 1013.0
20260502200150 73 163 0.0 0.9 0.00 0.00 0.00 34 1012.7
20260502195648 73 218 1.7 2.6 0.00 0.00 0.00 31 1013.1
20260502195139 73 165 3.5 5.2 0.00 0.00 0.00 30 1013.2
20260502194636 72 158 2.6 2.6 0.00 0.00 0.00 34 1013.0
20260502194133 73 147 0.9 1.7 0.00 0.00 0.00 33 1013.1
20260502193629 72 177 1.7 1.7 0.00 0.00 0.00 34 1013.2
20260502193126 73 169 0.9 0.9 0.00 0.00 0.00 33 1013.1
20260502192622 73 190 2.6 2.6 0.00 0.00 0.00 34 1013.1
20260502192120 72 218 1.7 1.7 0.00 0.00 0.00 36 1013.3
20260502191616 73 156 0.9 0.9 0.00 0.00 0.00 35 1013.3
20260502191114 73 136 0.9 0.9 0.00 0.00 0.00 35 1013.4
20260502190611 72 132 0.9 0.9 0.00 0.00 0.00 33 1013.5
20260502190109 73 169 3.5 5.2 0.00 0.00 0.00 33 1013.4
20260502185603 73 146 0.9 0.9 0.00 0.00 0.00 32 1013.5
20260502185100 75 83 0.9 2.6 0.00 0.00 0.00 33 1013.7
20260502184556 73 132 0.0 0.0 0.00 0.00 0.00 31 1013.5
20260502184051 73 122 0.0 0.9 0.00 0.00 0.00 30 1013.4
20260502183548 73 130 0.0 0.0 0.00 0.00 0.00 35 1013.8
20260502183044 72 108 0.9 1.7 0.00 0.00 0.00 35 1013.7
20260502182540 72 134 0.0 0.0 0.00 0.00 0.00 36 1013.7
20260502182036 71 189 1.7 1.7 0.00 0.00 0.00 33 1013.8
20260502181534 70 35 1.7 2.6 0.00 0.00 0.00 33 1013.8
20260502181032 69 336 1.7 2.6 0.00 0.00 0.00 38 1014.0
20260502180528 70 71 1.7 2.6 0.00 0.00 0.00 39 1014.0
20260502170442 62 122 0.9 0.9 0.00 0.00 0.00 50 1014.0
20260502163925 61 110 1.7 2.6 0.00 0.00 0.00 54 1014.2
20260502163421 61 136 0.0 0.0 0.00 0.00 0.00 54 1014.2
20260502162920 59 109 0.0 0.9 0.00 0.00 0.00 56 1014.4
20260502162416 60 130 0.0 0.9 0.00 0.00 0.00 54 1014.3
20260502161913 58 118 0.0 0.9 0.00 0.00 0.00 58 1014.3
20260502161409 56 138 0.0 0.0 0.00 0.00 0.00 60 1014.5
20260502160907 57 94 0.9 0.9 0.00 0.00 0.00 59 1014.5
20260502160405 56 106 0.9 0.9 0.00 0.00 0.00 61 1014.5
20260502151844 52 108 0.0 0.0 0.00 0.00 0.00 72 1014.6
20260502151340 50 125 0.0 0.0 0.00 0.00 0.00 75 1014.5
20260502150838 50 142 0.0 0.0 0.00 0.00 0.00 75 1014.9
20260502150334 50 118 0.0 0.0 0.00 0.00 0.00 76 1014.6
20260502130722 38 119 0.0 0.0 0.00 0.00 0.00 93 1014.6
20260502130220 37 118 0.0 0.0 0.00 0.00 0.00 94 1014.7
20260502123706 38 136 0.0 0.0 0.00 0.00 0.00 93 1014.5
20260502123202 38 127 0.0 0.0 0.00 0.00 0.00 93 1014.2
20260502122659 39 134 0.0 0.0 0.00 0.00 0.00 93 1014.4
20260502122155 39 126 0.0 0.0 0.00 0.00 0.00 93 1014.6
20260502121654 39 145 0.0 0.0 0.00 0.00 0.00 93 1014.3
20260502121151 39 146 0.0 0.0 0.00 0.00 0.00 93 1014.4
20260502120647 39 148 0.0 0.0 0.00 0.00 0.00 93 1014.4
20260502120144 39 162 0.0 0.0 0.00 0.00 0.00 93 1014.4
20260502115642 39 127 0.0 0.0 0.00 0.00 0.00 93 1014.3
20260502115138 39 125 0.0 0.0 0.00 0.00 0.00 93 1014.4
20260502114634 39 127 0.0 0.0 0.00 0.00 0.00 93 1014.4
20260502114132 39 143 0.0 0.0 0.00 0.00 0.00 92 1014.3
20260502113629 40 145 0.0 0.0 0.00 0.00 0.00 92 1014.5
20260502113127 40 174 0.0 0.0 0.00 0.00 0.00 92 1014.4
20260502112625 40 121 0.0 0.0 0.00 0.00 0.00 92 1014.3
20260502112122 40 112 0.0 0.9 0.00 0.00 0.00 91 1014.4
20260502111619 40 153 0.0 0.0 0.00 0.00 0.00 91 1014.5
20260502111116 40 131 0.0 0.0 0.00 0.00 0.00 92 1014.6
20260502110614 40 146 0.0 0.0 0.00 0.00 0.00 91 1014.4
20260502110111 41 147 0.0 0.0 0.00 0.00 0.00 91 1014.4
20260502105609 41 150 0.0 0.0 0.00 0.00 0.00 91 1014.3
20260502105106 41 131 0.0 0.0 0.00 0.00 0.00 90 1014.4
20260502104603 41 125 0.0 0.0 0.00 0.00 0.00 90 1014.5
20260502104100 42 124 0.0 0.0 0.00 0.00 0.00 90 1014.3
20260502103558 42 123 0.0 0.0 0.00 0.00 0.00 90 1014.4
20260502103056 42 125 0.0 0.0 0.00 0.00 0.00 90 1014.3
20260502102551 42 124 0.0 0.0 0.00 0.00 0.00 90 1014.3
20260502102049 42 138 0.0 0.0 0.00 0.00 0.00 89 1014.5
20260502101547 43 173 0.9 0.9 0.00 0.00 0.00 90 1014.3
20260502101045 43 128 0.0 0.0 0.00 0.00 0.00 90 1014.4
20260502100543 43 151 0.0 0.0 0.00 0.00 0.00 90 1014.5
20260502091518 44 115 0.0 0.0 0.00 0.00 0.00 86 1014.4
20260502091015 44 114 0.0 0.0 0.00 0.00 0.00 86 1014.4
20260502090512 44 116 0.0 0.0 0.00 0.00 0.00 86 1014.5
20260502071406 48 146 0.0 0.0 0.00 0.00 0.00 80 1014.6
20260502070905 48 134 0.0 0.0 0.00 0.00 0.00 79 1014.4
20260502070402 48 122 0.0 0.0 0.00 0.00 0.00 79 1014.4
20260502065901 48 127 0.0 0.0 0.00 0.00 0.00 78 1014.5
20260502065359 48 131 0.0 0.0 0.00 0.00 0.00 77 1014.5
20260502064856 49 131 0.0 0.0 0.00 0.00 0.00 76 1014.3
20260502064354 49 130 0.0 0.0 0.00 0.00 0.00 74 1014.3
20260502063851 50 159 0.0 0.0 0.00 0.00 0.00 73 1014.2
20260502063349 49 160 0.0 0.0 0.00 0.00 0.00 74 1014.3
20260502062846 50 155 0.0 0.0 0.00 0.00 0.00 74 1014.0
20260502062343 50 175 0.9 0.9 0.00 0.00 0.00 74 1014.3
20260502061842 50 119 0.0 0.0 0.00 0.00 0.00 74 1014.0
20260502061339 50 128 0.0 0.9 0.00 0.00 0.00 74 1014.0
20260502060835 50 95 0.0 0.0 0.00 0.00 0.00 74 1013.9
20260502060330 50 119 0.0 0.0 0.00 0.00 0.00 73 1014.0
20260502055828 50 127 0.0 0.0 0.00 0.00 0.00 71 1014.0
20260502055326 51 115 0.0 0.0 0.00 0.00 0.00 69 1014.0
20260502054825 52 145 0.0 0.0 0.00 0.00 0.00 67 1013.9
20260502054322 52 147 0.0 0.0 0.00 0.00 0.00 67 1014.2
20260502053820 52 163 0.0 0.0 0.00 0.00 0.00 68 1014.2
20260502053316 52 145 0.0 0.0 0.00 0.00 0.00 67 1014.3
20260502052814 52 146 0.0 0.0 0.00 0.00 0.00 68 1014.0
20260502052312 52 146 0.0 0.0 0.00 0.00 0.00 67 1014.3
20260502051810 52 123 0.0 0.0 0.00 0.00 0.00 67 1014.3
20260502051309 53 153 0.0 0.0 0.00 0.00 0.00 65 1013.9
20260502050804 55 103 0.0 0.0 0.00 0.00 0.00 61 1013.9
20260502050301 55 133 0.0 0.0 0.00 0.00 0.00 60 1014.0
20260502045758 55 103 0.0 0.9 0.00 0.00 0.00 60 1013.9
20260502045254 56 82 0.0 0.0 0.00 0.00 0.00 55 1013.7
20260502044752 57 136 0.0 0.0 0.00 0.00 0.00 55 1013.8
20260502044248 57 113 0.0 0.0 0.00 0.00 0.00 54 1014.0
20260502043745 58 142 0.0 0.0 0.00 0.00 0.00 51 1013.9
20260502043242 60 166 0.0 0.0 0.00 0.00 0.00 50 1013.9
20260502042742 60 85 1.7 1.7 0.00 0.00 0.00 46 1013.9
20260502042239 60 101 0.0 0.0 0.00 0.00 0.00 49 1013.7
20260502041737 59 104 0.0 0.0 0.00 0.00 0.00 50 1013.7
20260502041234 61 82 0.9 0.9 0.00 0.00 0.00 47 1013.7
20260502040731 61 146 0.0 0.0 0.00 0.00 0.00 42 1013.6
20260502040228 62 143 0.0 0.0 0.00 0.00 0.00 43 1013.6
20260502035724 62 121 0.0 0.0 0.00 0.00 0.00 43 1013.4
20260502035221 62 140 0.0 0.0 0.00 0.00 0.00 41 1013.3
20260502034718 62 156 0.0 0.9 0.00 0.00 0.00 42 1013.5
20260502034216 62 135 0.0 0.0 0.00 0.00 0.00 41 1013.3
20260502033714 62 141 0.0 0.0 0.00 0.00 0.00 42 1013.2
20260502033212 63 125 0.0 0.0 0.00 0.00 0.00 43 1013.3
20260502032708 63 116 0.0 0.0 0.00 0.00 0.00 40 1013.2
20260502032204 64 146 0.0 0.0 0.00 0.00 0.00 39 1012.9
20260502031702 64 195 1.7 1.7 0.00 0.00 0.00 39 1013.1
20260502031200 65 164 0.9 0.9 0.00 0.00 0.00 40 1013.1
20260502030658 65 251 2.6 2.6 0.00 0.00 0.00 39 1012.9
20260502030156 65 204 3.5 3.5 0.00 0.00 0.00 39 1013.0
20260502025653 65 177 0.9 0.9 0.00 0.00 0.00 40 1012.6
20260502025150 66 170 2.6 2.6 0.00 0.00 0.00 37 1012.7
20260502024648 66 144 0.9 0.9 0.00 0.00 0.00 37 1013.1
20260502024146 66 144 0.0 0.0 0.00 0.00 0.00 38 1013.0